Location: Hall+in+Tirol
(47.2830°N, 11.5170°E)
Time: 21:45:50
(UTC+02:00)

Daily predictions for brighter satellites

Satellite Brightness Start Highest point End
(mag) Time Altitude Azimuth Time Altitude Azimuth Time Altitude Azimuth
SL-16 R/B 2.4 21:21:37 10° NNW 21:27:19 79° WSW 21:32:59 10° SSE
Okean 1 3.9 21:25:12 10° SSW 21:29:13 64° W 21:33:17 10° N
BREEZE-M R/B 2.3 21:28:47 10° WSW 21:33:08 68° SSE 21:35:48 10° ENE
Timation 2 Rocket 3.9 21:28:24 10° SSW 21:34:21 77° ESE 21:40:29 10° NNE
Lacrosse 5 rocket 1.7 21:30:46 10° NW 21:35:10 65° NNE 21:39:18 10° ESE
Thor Agena Rocket 4.2 21:30:04 10° N 21:35:18 63° WNW 21:40:26 10° SSW
Cosmos 2150 Rocket 4.1 21:32:29 10° NNW 21:37:54 75° ENE 21:43:12 10° SSE
MetOp-B 4.3 21:39:24 10° SSE 21:44:41 62° ENE 21:49:59 10° N
Aureole 2 Rocket 1.9 21:42:12 10° NNW 21:45:11 72° ENE 21:47:59 10° SSE
Meteor 1-13 Rocket 4.4 21:41:01 10° S 21:46:52 68° E 21:52:49 10° NNE
USA 234 3.4 21:43:10 10° ENE 21:49:37 55° SE 21:56:01 10° SSW
Cosmos 540 Rocket 4.2 21:46:12 10° SSE 21:50:45 32° ESE 21:55:20 10° NE
Spot 2 Rocket 4.4 21:47:30 10° S 21:52:21 48° W 21:57:14 10° NNW
Cosmos 1242 Rocket 3.8 21:49:47 10° NNW 21:53:16 41° W 21:56:40 10° SSW
Cosmos 1937 Rocket 4.0 21:49:35 10° NNW 21:54:38 58° WSW 21:59:40 10° S
NOSS 3-2 (A) 4.1 21:49:15 10° SW 21:55:13 64° NW 22:01:58 10° NE
CSL-04 DEB 4.5 21:54:05 10° SSE 21:58:13 69° ENE 22:02:17 10° N
Cosmos 2298 Rocket 4.3 21:53:45 10° NNW 21:59:01 68° WSW 22:04:15 10° S
Cosmos 1763 Rocket 3.6 21:55:28 10° SSW 22:00:46 90° WNW 22:06:05 10° NNE
NOSS 3-2 (C) 3.8 21:55:42 10° SW 22:01:42 76° NW 22:08:29 10° NE
Cosmos 1340 Rocket 2.9 21:57:58 10° S 22:01:59 64° E 22:06:03 10° NNE
Cosmos 1025 Rocket 4.5 22:00:03 12° SE 22:02:55 22° E 22:06:17 10° NE
Meteor 2-20 Rocket 4.5 21:58:14 10° N 22:04:25 82° E 22:10:35 10° S
SPOT 5 3.3 22:00:59 12° SE 22:04:48 43° ENE 22:09:13 10° N
Terra 3.2 22:02:48 11° ESE 22:06:32 26° ENE 22:10:26 10° N
Cosmos 2360 Rocket 2.2 22:00:56 10° NNW 22:06:37 90° WNW 22:11:51 12° SSE
Cosmos 841 Rocket 3.5 22:01:49 10° SSW 22:07:03 74° ESE 22:12:20 10° NNE
Cosmos 2219 Rocket 3.2 22:04:56 10° NNW 22:10:02 34° NE 22:14:46 12° ESE
Cosmos 1455 Rocket 3.3 22:06:39 10° NNW 22:11:01 72° W 22:15:22 10° S
USA 32 4.1 22:05:56 10° N 22:11:12 81° W 22:16:25 10° S
USA 245 3.5 22:08:38 13° SSE 22:11:52 72° ENE 22:16:31 10° N
Cosmos 372 Rocket 4.1 22:09:23 10° NNW 22:14:30 63° ENE 22:18:38 15° SE
CENTAUR R/B 2.5 22:12:40 10° SSW 22:18:40 74° SE 22:25:41 10° NE
Helios 1A 2.9 22:24:55 17° SSE 22:28:07 77° ENE 22:32:19 10° N
CZ-4C R/B 3.1 22:21:27 10° NW 22:28:26 70° NE 22:35:04 16° SE
Okean 2 3.7 22:27:52 17° SSE 22:30:54 49° E 22:34:58 10° NNE
ERS-1 Rocket 3.2 22:27:43 12° S 22:32:24 68° WSW 22:37:27 10° NNW
ATLAS 3B R/B 4.4 22:27:51 10° W 22:34:20 37° NW 22:40:37 10° NNE
Cosmos 2333 Rocket 2.9 22:29:59 10° NNW 22:35:29 46° NE 22:39:40 17° ESE
CZ-2C R/B 4.0 22:31:55 16° SE 22:35:43 39° ENE 22:40:57 10° N
Cosmos 292 Rocket 4.2 22:31:37 10° SSW 22:36:20 66° WNW 22:41:06 10° NNE
SL-16 R/B 4.4 22:34:10 10° N 22:37:44 17° NE 22:41:17 10° ENE
COSMOS 2428 2.8 22:32:54 10° NNW 22:38:37 71° ENE 22:42:37 20° SE
Meteor 1-23 Rocket 4.2 22:34:18 10° S 22:39:52 86° W 22:45:29 10° N
Cosmos 1092 Rocket 4.2 22:36:28 10° N 22:42:47 61° ENE 22:47:17 20° SSE
Abrixas rocket 2.2 22:39:45 10° W 22:43:00 77° N 22:46:14 10° ENE
Cosmos 1356 Rocket 3.7 22:40:50 20° SSE 22:43:39 54° E 22:47:52 10° NNE
Nadezhda 4 Rocket 4.0 22:38:18 10° N 22:44:40 87° E 22:49:44 17° S
SPOT 1/Viking Rocket 3.6 22:43:47 18° S 22:47:45 80° WSW 22:52:57 10° NNW
ISS -2.3 22:45:27 10° WNW 22:48:33 38° N 22:51:39 10° ENE
Cosmos 1833 4.5 22:43:01 10° SW 22:48:45 73° WNW 22:54:27 10° NNE
SJ 16-02 1.8 22:45:02 10° NNW 22:49:23 55° WSW 22:52:24 19° S
Tiangong 2 1.8 22:48:14 10° WSW 22:51:08 34° S 22:51:30 32° S
Helios 1B rocket 2.4 22:47:05 10° NNE 22:51:13 64° ESE 22:53:51 21° S
H-2A R/B 3.1 22:46:50 10° SSW 22:51:26 38° W 22:56:09 10° NNW
Cosmos 1125 Rocket 3.7 22:48:07 10° NNW 22:53:22 70° WSW 22:56:53 21° S
Shenzhou-11 Module 4.4 22:54:03 10° SW 22:54:50 12° SW 22:54:50 12° SW
Cosmos 2228 4.2 22:52:41 10° N 22:56:30 30° ENE 22:58:20 22° ESE
Iridium 40 4.2 22:57:42 46° SW 22:58:12 64° W 23:00:34 10° N
Cosmos 2297 Rocket 3.7 22:57:21 16° ESE 22:58:26 17° E 23:01:59 10° ENE
Cosmos 1536 Rocket 4.5 22:54:20 10° SSW 22:58:37 49° WNW 23:02:59 10° N
Okean 1-7 Rocket 4.0 22:57:29 26° SSE 22:59:42 47° E 23:04:05 10° NNE
Cosmos 2322 Rocket 4.5 22:57:21 10° WNW 23:00:37 16° W 23:03:54 10° SW
Cosmos 2322 4.4 22:55:40 10° NW 23:01:09 48° WSW 23:05:09 18° S
Cosmos 2227 Rocket 3.5 23:00:38 19° ESE 23:01:55 21° E 23:05:59 10° NE
NOSS 0 Rocket 4.2 22:56:28 10° NNW 23:02:40 60° ENE 23:06:43 22° SE
Cosmos 1726 Rocket 4.1 22:59:16 10° N 23:03:31 45° ENE 23:05:29 27° SE
IGS 5A 3.4 23:02:39 27° S 23:04:52 85° WSW 23:09:04 10° NNW
Cosmos 2237 Rocket 2.9 23:00:06 10° NNW 23:05:34 45° NE 23:09:12 20° ESE
DMSP B5D2-2 4.5 23:02:37 10° N 23:07:53 66° WNW 23:13:06 10° SSW
Cosmos 2026 Rocket 4.1 23:05:20 10° N 23:11:29 63° ENE 23:15:00 26° SSE
Cosmos 1174 4.2 23:10:24 10° NNW 23:13:14 37° NE 23:14:16 28° E
Lacrosse 5 rocket 2.9 23:10:36 10° WNW 23:14:02 24° SW 23:15:25 20° SSW
Meteor 1-29 2.9 23:11:18 10° NNE 23:14:49 88° W 23:16:19 32° SSW
Cosmos 1066 Rocket 4.1 23:11:03 19° S 23:14:57 87° E 23:20:28 10° NNE
BREEZE-M DEB 3.9 23:11:52 10° WNW 23:14:59 54° SSW 23:14:59 54° SSW
Cosmos 2279 Rocket 4.5 23:15:48 26° SE 23:18:55 44° E 23:24:46 10° NNE
Cosmos 1655 Rocket 4.5 23:12:50 10° N 23:19:02 49° ENE 23:22:28 25° SE
Cosmos 2058 Rocket 3.6 23:15:31 10° N 23:19:55 48° ENE 23:21:39 31° SE
Cosmos 1953 4.0 23:20:39 10° NNE 23:23:44 21° ENE 23:24:55 18° E
CARTOSAT-1 4.2 23:27:43 25° SSW 23:29:52 48° W 23:34:04 10° NNW
ERBS 3.6 23:26:42 10° NW 23:29:52 36° NNE 23:31:36 21° E
Cosmos 2142 Rocket 4.4 23:26:59 26° S 23:30:39 74° E 23:36:53 10° NNE
USA 234 3.8 23:26:15 10° NE 23:32:42 61° NNW 23:39:07 10° WSW
Cosmos 2219 3.2 23:29:11 19° SSW 23:33:26 79° ESE 23:39:13 10° NNE
Meteor 1-22 Rocket 4.1 23:28:41 10° NNW 23:34:04 82° W 23:36:39 31° S
ALOS 2 4.2 23:37:35 19° E 23:39:22 25° ENE 23:42:55 10° N
Cosmos 1025 Rocket 4.3 23:36:54 14° SW 23:40:17 38° WNW 23:44:25 10° N
Cosmos 1428 Rocket 4.4 23:36:10 10° N 23:42:20 82° E 23:45:25 32° SSE
Terra 2.6 23:41:41 24° SSW 23:44:04 43° W 23:48:37 10° NNW
Cosmos 1606 Rocket 4.0 23:41:36 10° NNW 23:45:57 55° W 23:47:45 32° SSW
ADEOS Rocket 4.2 23:43:54 10° NE 23:48:00 21° E 23:49:19 19° ESE
Cosmos 1634 Rocket 4.2 23:44:20 21° SSW 23:48:43 72° W 23:55:05 10° N
CZ-2C R/B 2.7 23:43:03 10° NNE 23:48:44 79° ESE 23:51:32 31° S
Cosmos 2360 Rocket 4.4 23:46:47 10° WNW 23:49:47 15° W 23:52:47 10° SW
Cosmos 1626 Rocket 4.4 23:49:06 32° ESE 23:49:54 35° E 23:53:58 10° NNE
Cosmos 1602 Rocket 4.5 23:52:06 31° ESE 23:52:49 33° E 23:56:47 10° NNE
SAR-Lupe-4 3.5 23:52:20 60° S 23:52:54 80° WSW 23:56:30 10° NNW
Iridium 4 Rocket 4.0 23:50:44 34° SSE 23:53:07 57° E 23:58:54 10° N
Cosmos 2219 Rocket 2.8 23:48:49 10° NW 23:54:05 44° WSW 23:56:29 28° SSW
BREEZE-M R/B 2.6 23:53:38 10° WNW 23:56:09 48° N 23:56:09 48° N
